Location: *
(50.6089°N, 2.2719°E)
Time: 22:30:47
(UTC+00:00)

STARLINK-24 - Pass Details

Date: 18 October 2019
Orbit: 550 x 552 km, 53.0° (Epoch: 21 November)

Event Time Altitude Azimuth Distance (km) Brightness Sun altitude
Rises 17:39:43 0° 250° (WSW) 2,717 9.0 -8.1°
Reaches altitude 10° 17:41:56 10° 251° (WSW) 1,825 7.8 -8.4°
Maximum altitude 17:46:06 87° 339° (NNW) 557 3.6 -9.1°
Enters shadow 17:49:54 12° 71° (ENE) 1,684 5.5 -9.7°
